Location: Arrodets-la-Barthe
(43.0306°N, 0.2829°E)
Time: 19:24:03
(UTC+00:00)

deb Chang Zheng 4 - Pass Details

Date: 24 October 2021
Orbit: 595 x 616 km, 98.6° (Epoch: 02 December)

Event Time Altitude Azimuth Distance (km) Brightness Sun altitude
Rises 17:37:44 0° 155° (SSE) 2,824 6.8 -7.2°
Reaches altitude 10° 17:39:53 10° 152° (SSE) 1,928 5.9 -7.6°
Maximum altitude 17:44:00 60° 73° (ENE) 690 3.5 -8.3°
Drops below altitude 10° 17:48:10 10° 354° (N) 1,953 6.1 -9.1°
Sets 17:50:23 0° 350° (N) 2,864 7.0 -9.5°
